Flag for U.S.A. Weather past 2 weeks in Warminster Township, Pennsylvania, U.S.A.

Now
65 °F

Sunny.


Feels Like: 65 °F
Forecast: 45 / 65 °F
Wind: 13 mph from Southwest

Location: Doylestown Airport

Current Time: Oct 25, 2014 at 5:27:20 PM

Latest Report: Oct 25, 2014 at 4:54 PM


Visibility: 10 mi

Pressure: 29.69 "Hg

Humidity: 45%

Dew point: 43 °F

Location of Warminster TownshipLocation

Historic Weather in Warminster Township — Graph

°F

Warminster Township temperature yesterday

Maximum temperature yesterday: 67 °F (at 2:54 PM)
Minimum temperature yesterday: 50 °F (at 12:54 AM)
Average temperature yesterday: 57 °F

Past Weeks' High & Low Weather Summary

 TemperatureHumidityPressure
High75 °F (Oct 14, 2:54 PM)100% (Oct 11, 3:54 AM)30.33 "Hg (Oct 11, 3:54 AM)
Low31 °F (Oct 20, 6:54 AM)37% (Oct 19, 4:54 PM)29.59 "Hg (Oct 18, 4:54 AM)
Average56 °F79%29.93 "Hg
* Reported Oct 10 3:54 PM — Oct 25 3:54 PM, Warminster Township, Weather by CustomWeather, © 2014

Note: Actual official high and low records may vary slightly from our data, if they occured in-between our weather recording intervals... More about our weather records

Advertising

Warminster Township weather history for previous 24 hours

 ConditionsComfort  
Time TempWeatherWind HumidityBarometerVisibility
3:54 PM
Oct 25
66 °FSunny.7 mph42%29.71 "Hg10 mi
2:54 PM66 °FSunny.12 mph42%29.73 "Hg10 mi
1:54 PM66 °FPassing clouds.15 mph43%29.76 "Hg10 mi
12:54 PM66 °FPassing clouds.7 mph45%29.78 "Hg10 mi
11:54 AM62 °FSunny.7 mph50%29.83 "Hg10 mi
10:54 AM59 °FSunny.8 mph51%29.87 "Hg10 mi
9:54 AM54 °FSunny.3 mph57%29.89 "Hg10 mi
8:54 AM47 °FSunny.3 mph66%29.89 "Hg10 mi
7:54 AM41 °FClear.No wind74%29.91 "Hg10 mi
6:54 AM40 °FClear.No wind77%29.90 "Hg10 mi
5:54 AM40 °FClear.No wind80%29.89 "Hg10 mi
4:54 AM40 °FClear.No wind83%29.90 "Hg10 mi
3:54 AM42 °FClear.No wind71%29.89 "Hg10 mi
2:54 AM47 °FClear.3 mph61%29.89 "Hg10 mi
1:54 AM50 °FClear.3 mph52%29.88 "Hg10 mi
12:54 AM52 °FClear.6 mph57%29.87 "Hg10 mi
11:54 PM
Oct 24
53 °FClear.No wind56%29.86 "Hg10 mi
10:54 PM54 °FClear.3 mph59%29.86 "Hg10 mi
9:54 PM55 °FClear.5 mph62%29.86 "Hg10 mi
8:54 PM57 °FClear.No wind58%29.85 "Hg10 mi
7:54 PM59 °FClear.5 mph54%29.84 "Hg10 mi
6:54 PM61 °FSunny.6 mph48%29.83 "Hg10 mi
5:54 PM63 °FSunny.9 mph47%29.80 "Hg10 mi
Weather by CustomWeather, © 2014

See weather overviewHow to use our weather pages